• In Hungary
  • List of Countries
  • For 7 days
  • Water Temperature
  • Satellite Maps
  • Weather Map
  • News
  • Weather Widgets
  • user-avatar
    Login

    Hourly Weather Shillong

    Today, 26 September, Tuesday

    Time Temperature Precipitation Wind Pressure Humidity
    00:00 +18°C° 0 mm 0 mps 630 mmHg 91%
    01:00 +17°C° 0.4 mm 0 mps 630 mmHg 92%
    02:00 +17°C° 0.4 mm 0 mps 630 mmHg 92%
    03:00 +17°C° 0.4 mm 0 mps 630 mmHg 92%
    04:00 +17°C° 0.2 mm 0 mps 630 mmHg 93%
    05:00 +17°C° 0.2 mm 0 mps 630 mmHg 93%
    06:00 +19°C° 0 mm 1 mps 631 mmHg 93%
    07:00 +19°C° 0.1 mm 0 mps 631 mmHg 88%
    08:00 +20°C° 0.1 mm 0 mps 632 mmHg 83%
    09:00 +22°C° 0.1 mm 0 mps 633 mmHg 78%
    10:00 +23°C° 0.2 mm 0 mps 633 mmHg 76%
    11:00 +23°C° 0.2 mm 0 mps 633 mmHg 74%
    12:00 +25°C° 0.2 mm 1 mps 633 mmHg 72%
    13:00 +26°C° 0.3 mm 1 mps 632 mmHg 73%
    14:00 +26°C° 0.3 mm 1 mps 632 mmHg 73%
    15:00 +26°C° 0.3 mm 1 mps 631 mmHg 73%
    16:00 +23°C° 0.3 mm 0 mps 631 mmHg 77%
    17:00 +21°C° 0.3 mm 0 mps 630 mmHg 81%
    18:00 +20°C° 0.3 mm 0 mps 630 mmHg 85%
    19:00 +20°C° 0.1 mm 0 mps 630 mmHg 86%
    20:00 +20°C° 0.1 mm 0 mps 631 mmHg 87%
    21:00 +19°C° 0.1 mm 0 mps 631 mmHg 88%
    22:00 +19°C° 0.2 mm 0 mps 631 mmHg 88%
    23:00 +19°C° 0.2 mm 0 mps 631 mmHg 89%

    Tomorrow, 27 September, Wednesday

    Time Temperature Precipitation Wind Pressure Humidity
    00:00 +19°C° 0.2 mm 0 mps 631 mmHg 89%
    01:00 +18°C° 0.5 mm 0 mps 631 mmHg 90%
    02:00 +18°C° 0.5 mm 0 mps 630 mmHg 90%
    03:00 +18°C° 0.5 mm 0 mps 630 mmHg 91%
    04:00 +18°C° 0.3 mm 0 mps 630 mmHg 91%
    05:00 +18°C° 0.3 mm 0 mps 630 mmHg 91%
    06:00 +18°C° 0.3 mm 0 mps 630 mmHg 91%
    07:00 +21°C° 0.5 mm 1 mps 631 mmHg 87%
    08:00 +23°C° 0.5 mm 1 mps 632 mmHg 83%
    09:00 +24°C° 0.5 mm 1 mps 633 mmHg 79%
    10:00 +25°C° 1.5 mm 1 mps 633 mmHg 77%
    11:00 +25°C° 1.5 mm 1 mps 633 mmHg 76%
    12:00 +25°C° 1.5 mm 1 mps 633 mmHg 75%
    13:00 +25°C° 2 mm 1 mps 632 mmHg 76%
    14:00 +25°C° 2 mm 1 mps 632 mmHg 77%
    15:00 +25°C° 2 mm 1 mps 631 mmHg 79%
    16:00 +24°C° 1.1 mm 1 mps 631 mmHg 82%
    17:00 +23°C° 1.1 mm 1 mps 630 mmHg 85%
    18:00 +22°C° 1.1 mm 1 mps 630 mmHg 88%
    19:00 +21°C° 2.1 mm 1 mps 630 mmHg 89%
    20:00 +21°C° 2.1 mm 1 mps 631 mmHg 90%
    21:00 +19°C° 2.1 mm 0 mps 631 mmHg 91%
    22:00 +18°C° 2.2 mm 0 mps 631 mmHg 91%
    23:00 +20°C° 2.2 mm 1 mps 631 mmHg 92%

    Day after tomorrow, 28 September, Thursday

    Time Temperature Precipitation Wind Pressure Humidity
    00:00 +20°C° 2.2 mm 1 mps 631 mmHg 93%
    01:00 +20°C° 1.7 mm 1 mps 630 mmHg 92%
    02:00 +20°C° 1.7 mm 1 mps 630 mmHg 92%
    03:00 +20°C° 1.7 mm 1 mps 630 mmHg 92%
    04:00 +20°C° 1.2 mm 1 mps 630 mmHg 92%
    05:00 +19°C° 1.2 mm 1 mps 630 mmHg 93%
    06:00 +19°C° 1.2 mm 1 mps 630 mmHg 93%
    07:00 +20°C° 1.1 mm 1 mps 631 mmHg 91%
    08:00 +21°C° 1.1 mm 1 mps 632 mmHg 89%
    09:00 +22°C° 1.1 mm 1 mps 632 mmHg 87%
    10:00 +22°C° 0.6 mm 1 mps 632 mmHg 84%
    11:00 +23°C° 0.6 mm 2 mps 632 mmHg 80%
    12:00 +24°C° 0.6 mm 2 mps 632 mmHg 77%
    13:00 +24°C° 1 mm 2 mps 631 mmHg 75%
    14:00 +25°C° 1 mm 1 mps 631 mmHg 73%
    15:00 +25°C° 1 mm 1 mps 630 mmHg 71%
    16:00 +24°C° 1.1 mm 1 mps 630 mmHg 76%
    17:00 +23°C° 1.1 mm 1 mps 630 mmHg 81%
    18:00 +21°C° 1.1 mm 1 mps 629 mmHg 87%
    19:00 +21°C° 1 mm 1 mps 630 mmHg 87%
    20:00 +20°C° 1 mm 1 mps 630 mmHg 88%
    21:00 +20°C° 1 mm 1 mps 631 mmHg 89%
    22:00 +20°C° 1.3 mm 1 mps 630 mmHg 91%
    23:00 +19°C° 1.3 mm 1 mps 630 mmHg 92%

    29 September, Friday

    Time Temperature Precipitation Wind Pressure Humidity
    00:00 +19°C° 1.3 mm 1 mps 630 mmHg 94%
    01:00 +19°C° 2 mm 1 mps 630 mmHg 94%
    02:00 +19°C° 2 mm 1 mps 630 mmHg 94%
    03:00 +19°C° 2 mm 1 mps 629 mmHg 94%
    04:00 +19°C° 1.1 mm 1 mps 629 mmHg 94%
    05:00 +19°C° 1.1 mm 1 mps 630 mmHg 95%
    06:00 +19°C° 1.1 mm 1 mps 630 mmHg 95%
    07:00 +20°C° 0.8 mm 1 mps 631 mmHg 93%
    08:00 +20°C° 0.8 mm 1 mps 632 mmHg 90%
    09:00 +21°C° 0.8 mm 1 mps 632 mmHg 88%
    10:00 +22°C° 1.1 mm 1 mps 632 mmHg 86%
    11:00 +22°C° 1.1 mm 1 mps 632 mmHg 84%
    12:00 +23°C° 1.1 mm 1 mps 632 mmHg 82%
    13:00 +23°C° 1.3 mm 1 mps 631 mmHg 82%
    14:00 +23°C° 1.3 mm 1 mps 630 mmHg 82%
    15:00 +23°C° 1.3 mm 1 mps 630 mmHg 82%
    16:00 +22°C° 1.1 mm 1 mps 629 mmHg 85%
    17:00 +21°C° 1.1 mm 1 mps 629 mmHg 87%
    18:00 +20°C° 1.1 mm 1 mps 629 mmHg 90%
    19:00 +20°C° 0.9 mm 1 mps 630 mmHg 90%
    20:00 +19°C° 0.9 mm 1 mps 630 mmHg 91%
    21:00 +19°C° 0.9 mm 1 mps 631 mmHg 91%
    22:00 +19°C° 1.9 mm 1 mps 631 mmHg 93%
    23:00 +19°C° 1.9 mm 1 mps 631 mmHg 94%

    30 September, Saturday

    Time Temperature Precipitation Wind Pressure Humidity
    00:00 +19°C° 1.9 mm 1 mps 630 mmHg 96%
    01:00 +19°C° 5.1 mm 1 mps 630 mmHg 96%
    02:00 +19°C° 5.1 mm 1 mps 630 mmHg 97%
    03:00 +19°C° 5.1 mm 1 mps 630 mmHg 97%
    04:00 +19°C° 10.7 mm 1 mps 630 mmHg 97%
    05:00 +19°C° 10.7 mm 1 mps 630 mmHg 98%
    06:00 +18°C° 10.7 mm 2 mps 631 mmHg 98%
    07:00 +18°C° 6.8 mm 2 mps 631 mmHg 97%
    08:00 +18°C° 6.8 mm 2 mps 632 mmHg 96%
    09:00 +18°C° 6.8 mm 2 mps 632 mmHg 96%
    10:00 +19°C° 2.4 mm 1 mps 632 mmHg 96%
    11:00 +19°C° 2.4 mm 1 mps 632 mmHg 96%
    12:00 +19°C° 2.4 mm 1 mps 631 mmHg 96%
    13:00 +19°C° 1.3 mm 1 mps 631 mmHg 96%
    14:00 +18°C° 1.3 mm 2 mps 631 mmHg 95%
    15:00 +18°C° 1.3 mm 2 mps 630 mmHg 95%
    16:00 +18°C° 0.6 mm 2 mps 631 mmHg 95%
    17:00 +17°C° 0.6 mm 2 mps 631 mmHg 95%
    18:00 +17°C° 0.6 mm 2 mps 631 mmHg 95%
    19:00 +17°C° 0.7 mm 2 mps 632 mmHg 96%
    20:00 +17°C° 0.7 mm 2 mps 632 mmHg 96%
    21:00 +17°C° 0.7 mm 2 mps 632 mmHg 96%
    22:00 +17°C° 2.1 mm 2 mps 632 mmHg 96%
    23:00 +17°C° 2.1 mm 2 mps 632 mmHg 97%

    1 October, Sunday

    Time Temperature Precipitation Wind Pressure Humidity
    00:00 +18°C° 2.1 mm 1 mps 631 mmHg 97%
    01:00 +18°C° 3.2 mm 1 mps 631 mmHg 97%
    02:00 +18°C° 3.2 mm 1 mps 631 mmHg 97%
    03:00 +18°C° 3.2 mm 1 mps 630 mmHg 98%
    04:00 +18°C° 3.5 mm 1 mps 631 mmHg 98%
    05:00 +18°C° 3.5 mm 1 mps 631 mmHg 98%
    06:00 +18°C° 3.5 mm 1 mps 631 mmHg 98%
    07:00 +17°C° 2 mm 2 mps 632 mmHg 98%
    08:00 +17°C° 2 mm 2 mps 632 mmHg 97%
    09:00 +17°C° 2 mm 2 mps 632 mmHg 97%
    10:00 +17°C° 0.7 mm 2 mps 632 mmHg 97%
    11:00 +17°C° 0.7 mm 2 mps 632 mmHg 96%
    12:00 +18°C° 0.7 mm 2 mps 632 mmHg 95%
    13:00 +18°C° 1.1 mm 2 mps 631 mmHg 95%
    14:00 +18°C° 1.1 mm 2 mps 631 mmHg 94%
    15:00 +19°C° 1.1 mm 2 mps 631 mmHg 94%
    16:00 +18°C° 1.4 mm 2 mps 631 mmHg 95%
    17:00 +19°C° 1.4 mm 1 mps 631 mmHg 95%
    18:00 +18°C° 1.4 mm 1 mps 631 mmHg 96%
    19:00 +18°C° 1.2 mm 1 mps 632 mmHg 96%
    20:00 +18°C° 1.2 mm 1 mps 632 mmHg 96%
    21:00 +17°C° 1.2 mm 2 mps 632 mmHg 97%
    22:00 +17°C° 1.6 mm 2 mps 632 mmHg 97%
    23:00 +17°C° 1.6 mm 2 mps 632 mmHg 97%
    Show more